Temp
22 23 22 21 21 20 20 21 21 22 22 22 22 21 21 21 20 20 19 19 19 19 18 18 19 19 18 18 18 18 18 18 17 17 17 17 17 17 16 17 17 17 17
23 22 22 22 21 20 20 20 21 21 21 21 21 21 21 21 20 19 19 18 19 18 18 18 18 18 18 17 18 18 17 17 17 17 17 17 16 16 16 17 17 17 17
23 22 21 21 22 21 20 20 20 21 21 21 20 20 20 20 20 19 19 18 18 18 18 18 18 18 17 17 17 17 17 17 17 17 16 17 16 16 17 17 17 16 17
23 22 21 21 21 21 21 20 19 20 20 21 21 20 20 20 20 19 19 18 18 18 18 18 18 17 17 17 17 17 17 17 17 17 17 17 16 17 17 16 16 16 16
22 22 21 21 21 21 21 20 19 19 20 20 20 20 20 19 19 19 18 18 18 18 18 18 17 17 16 16 16 17 17 17 17 17 17 17 16 16 15 15 15 15 16
21 21 21 21 21 21 21 20 19 19 19 19 19 19 19 19 18 18 18 18 18 18 18 17 17 16 16 16 16 17 16 16 16 16 15 16 15 14 14 14 14 14 14
21 21 21 20 20 20 20 20 19 19 19 19 19 19 19 18 18 18 18 17 17 18 18 17 16 16 16 16 16 16 16 16 16 16 16 15 15 14 14 14 14 14 13
21 20 20 20 19 19 19 20 20 19 19 19 18 18 18 18 18 18 17 17 17 17 17 16 16 16 16 16 16 16 16 16 16 15 15 14 14 14 14 13 13 13 13
21 20 20 20 19 18 19 19 20 20 19 17 18 17 17 17 18 17 17 17 17 17 16 16 16 15 16 16 16 16 16 16 15 15 14 14 14 13 13 13 13 12 12
20 20 20 19 19 19 19 18 19 18 17 16 16 16 17 17 17 17 17 17 17 17 16 16 16 15 16 16 16 16 16 15 15 14 14 14 14 13 13 13 13 12 12
18 19 19 19 19 19 19 20 19 18 18 19 16 16 15 16 16 16 17 17 17 17 16 16 16 16 16 16 16 16 15 15 14 14 13 14 13 13 13 13 12 12 12
18 18 18 18 18 18 18 18 18 17 16 15 16 16 16 17 16 15 16 16 16 16 16 16 16 16 16 15 15 15 15 14 14 13 13 13 13 13 13 13 12 12 12
18 18 17 18 18 17 17 17 17 16 15 15 16 16 15 17 15 15 16 16 16 15 16 16 16 15 15 15 15 15 15 14 13 13 13 13 13 13 13 12 12 12 12
17 17 17 17 17 17 16 16 16 16 15 15 15 14 15 14 15 15 15 15 16 15 15 15 16 16 16 15 16 15 14 14 13 13 13 13 13 13 13 12 12 12 11
17 17 17 17 16 17 16 15 15 16 15 15 14 15 15 14 14 15 15 16 15 15 16 16 15 15 15 16 16 15 14 14 13 13 13 13 13 13 13 12 12 12 11
17 17 17 16 17 17 17 16 14 15 14 14 14 14 14 14 14 14 14 15 15 15 16 16 16 16 16 16 15 15 14 14 13 13 13 13 13 13 12 12 12 11 11
17 17 16 16 17 17 16 15 14 14 14 14 13 14 15 14 14 14 14 14 15 15 16 16 15 15 15 15 15 15 14 14 13 13 13 13 12 12 12 12 12 11 11
17 16 16 16 16 17 15 15 14 14 14 14 14 14 14 14 14 14 14 15 15 15 16 16 15 15 15 15 14 14 14 14 13 13 13 12 12 12 12 12 12 11 11
17 17 15 15 15 16 15 14 14 14 14 14 14 14 14 14 14 14 14 15 15 15 16 16 16 15 16 15 15 14 14 14 13 13 13 13 12 12 12 12 12 11 11
16 17 16 15 15 16 14 14 14 14 13 13 14 14 14 14 14 14 14 15 15 15 14 15 16 15 16 15 14 14 14 14 14 13 13 13 13 13 13 12 12 12 12
15 16 15 14 14 15 14 14 13 14 13 13 14 14 14 14 14 14 14 15 14 15 15 15 16 16 15 15 14 12 12 13 13 13 13 13 13 13 13 13 13 13 12
13 14 14 14 13 14 14 14 14 13 13 13 13 14 13 14 14 14 15 15 15 15 14 15 16 15 15 15 14 13 11 12 12 12 13 13 14 14 13 13 13 13 13
13 13 14 14 14 14 14 14 13 13 13 13 13 13 13 13 14 13 14 14 14 15 15 15 16 16 15 15 15 15 12 12 12 13 13 13 13 14 14 14 14 14 14
13 13 14 13 13 13 14 13 13 13 13 13 13 13 13 13 14 14 14 13 14 14 15 15 15 16 16 15 15 16 17 16 12 12 13 13 14 14 14 14 14 15 14
13 12 13 13 13 13 13 13 13 13 12 12 12 12 12 12 13 14 13 14 14 15 15 16 15 16 16 16 16 15 16 15 15 12 11 12 13 13 14 14 15 15 15
13 12 12 12 13 13 14 13 13 12 12 12 12 12 12 12 12 13 13 14 15 15 16 16 16 15 16 17 16 16 15 15 14 13 11 11 13 14 15 15 15 15 16
Height
742 743 746 749 752 755 756 756 756 761 763 762 763 765 768 770 773 777 781 784 786 788 791 793 795 799 803 806 808 810 812 814 816 818 819 820 823 824 826 826 827 828 828
742 743 744 748 751 754 757 756 756 757 762 765 766 766 767 770 773 777 781 785 787 789 793 795 797 801 805 807 808 811 813 816 819 820 822 824 826 827 829 830 831 832 832
741 742 743 746 749 752 756 757 757 757 759 765 768 769 770 771 773 777 781 785 788 791 794 797 800 803 806 807 810 812 814 817 821 822 824 825 830 831 834 833 834 836 836
740 741 743 744 748 750 753 756 757 758 760 762 767 771 772 773 775 777 781 785 788 792 795 800 801 804 807 810 813 814 817 820 822 824 826 829 832 833 836 837 836 840 840
739 741 742 744 746 748 752 755 757 758 760 762 764 768 773 775 776 778 782 785 789 793 796 799 803 806 809 810 814 818 820 822 824 826 828 832 834 836 839 840 839 842 843
738 740 741 743 744 747 749 753 757 759 761 763 765 766 769 773 777 781 784 787 790 793 797 800 804 808 810 812 815 819 824 825 826 828 830 834 837 838 841 842 842 844 845
736 739 741 743 745 746 748 751 755 758 759 760 761 764 765 770 776 782 785 788 791 794 797 801 805 810 813 815 817 820 825 828 828 829 831 836 839 840 842 844 844 846 847
736 738 741 743 744 746 748 751 752 755 757 758 760 763 772 767 774 780 786 789 793 795 798 802 807 810 814 816 819 822 826 829 830 832 832 838 841 843 845 846 847 849 849
736 737 739 741 744 746 748 750 754 759 760 758 764 768 777 775 775 782 786 789 792 796 801 805 809 812 816 819 822 825 828 830 831 835 834 840 842 845 846 848 849 852 852
735 736 737 740 742 745 747 751 755 758 760 750 768 772 775 780 783 787 791 794 793 796 802 807 811 813 819 821 823 827 830 831 833 837 836 841 845 847 849 851 852 854 855
734 735 737 739 740 743 745 748 752 755 757 754 765 770 777 781 785 788 793 796 796 796 803 809 813 817 820 822 826 828 831 832 835 837 840 843 846 849 852 853 855 855 856
732 734 737 738 739 741 742 746 749 753 756 759 764 769 771 775 784 790 794 796 799 800 804 810 814 817 820 823 827 829 832 834 837 838 842 845 847 849 853 856 856 856 857
729 733 735 736 738 740 741 744 747 750 754 759 762 767 771 773 780 791 795 796 801 805 804 810 814 817 820 823 828 830 831 837 839 840 845 847 848 851 854 856 857 858 859
727 730 733 735 736 738 741 744 746 749 752 756 760 764 770 772 775 784 793 795 800 804 804 809 815 817 821 824 827 830 834 838 840 843 848 849 848 852 855 857 859 859 861
725 728 730 733 736 736 738 742 746 749 751 755 759 764 767 771 777 780 787 792 797 801 804 809 814 817 821 825 828 831 836 838 842 845 847 850 851 854 856 857 858 860 862
722 725 727 731 733 736 737 740 743 747 750 754 757 761 766 770 774 777 784 789 796 800 804 807 813 818 821 825 828 832 836 839 844 847 847 850 853 855 857 858 859 861 863
719 721 724 728 731 733 735 738 742 746 749 752 756 760 763 768 772 775 781 787 794 800 803 809 813 818 822 827 830 833 837 839 844 848 848 849 852 855 858 858 859 861 864
717 719 722 725 729 732 734 738 741 744 747 750 753 756 761 765 770 773 778 786 793 798 800 807 814 818 822 824 829 834 837 839 843 847 848 850 852 855 856 858 860 861 864
714 717 721 724 727 731 734 737 740 743 745 747 749 747 753 761 768 774 779 785 790 795 798 805 811 817 821 824 829 834 837 840 843 846 848 851 853 855 856 857 858 861 864
714 716 719 723 727 730 734 737 741 744 746 748 749 751 755 764 771 776 779 784 790 795 799 803 809 816 819 825 831 834 838 840 842 844 846 849 853 855 856 857 858 859 863
713 715 717 721 725 728 732 737 740 742 746 749 752 756 759 764 770 775 779 786 790 795 798 803 808 813 820 825 829 837 840 841 843 845 845 847 850 853 855 856 857 858 860
710 713 716 720 723 727 730 734 739 743 746 749 753 757 761 766 769 774 779 784 790 795 799 802 805 811 818 822 826 831 841 845 844 845 847 847 849 851 852 853 854 856 857
707 710 713 717 722 725 728 733 738 742 746 749 752 756 760 764 769 773 778 783 789 792 797 801 805 809 813 820 823 825 836 839 841 843 844 844 846 847 848 849 850 852 853
702 708 712 717 721 724 727 730 735 738 742 745 748 753 757 761 766 770 777 781 787 791 795 800 805 807 812 815 821 823 824 825 835 841 840 840 842 842 844 845 846 846 848
699 704 710 716 720 722 725 728 733 737 741 744 746 750 756 757 763 769 776 781 786 790 795 798 803 805 809 811 815 819 821 825 829 832 835 835 836 836 838 839 840 841 842
699 704 709 713 718 721 723 727 731 736 740 743 746 749 753 755 761 767 773 778 783 787 791 795 799 802 805 808 811 814 817 818 826 828 831 830 829 828 830 831 833 834 835
Wind_Speed
11 17 16 18 21 20 20 24 26 24 24 29 36 37 37 37 36 35 33 32 30 28 26 26 27 27 23 25 27 28 30 31 30 30 29 28 28 28 28 30 31 30 30
15 18 18 20 22 22 21 23 27 29 27 29 36 37 39 38 37 36 34 31 29 27 26 26 29 28 27 27 30 31 33 32 30 29 29 27 27 27 28 31 30 28 29
17 18 19 22 24 24 23 23 25 29 32 32 36 39 38 38 38 36 34 30 28 27 26 27 27 28 29 31 31 33 33 32 30 28 29 28 24 25 24 24 26 28 26
17 18 21 23 25 25 25 24 24 25 30 35 35 34 35 36 36 35 33 31 29 29 27 26 28 28 31 33 34 33 31 30 28 28 27 25 22 20 19 20 21 19 22
18 19 20 22 26 27 26 25 25 25 27 31 35 35 33 33 33 33 32 31 30 29 27 27 27 29 33 34 33 31 30 29 29 28 25 24 21 19 19 19 20 20 19
18 19 20 22 25 27 28 27 26 26 27 29 32 35 35 35 34 33 32 31 30 30 28 28 28 32 34 34 33 31 27 29 30 29 27 24 22 21 19 20 22 21 20
18 19 20 23 24 27 28 29 29 28 30 32 35 36 37 36 34 33 32 32 31 31 30 30 32 34 34 33 32 31 28 27 28 27 26 22 20 20 20 20 21 20 21
16 17 19 23 25 25 27 28 30 32 32 35 35 36 34 37 36 35 33 31 29 30 31 33 35 34 31 31 30 29 28 26 26 26 26 21 20 19 20 20 21 20 21
15 15 17 22 23 25 24 25 26 25 29 29 26 27 28 27 35 35 32 31 33 32 33 33 36 35 30 27 28 29 27 27 27 24 24 22 20 20 21 20 21 21 22
15 11 14 21 18 20 20 21 23 17 19 22 14 15 24 21 21 26 26 31 34 33 33 34 37 33 26 26 30 28 27 27 25 26 24 22 20 20 20 20 21 21 21
14 12 13 17 17 19 16 18 22 24 20 29 27 25 26 27 20 21 27 30 31 35 36 35 32 25 25 29 30 27 26 26 27 27 22 23 21 20 19 20 20 21 21
15 14 14 16 17 16 16 17 20 22 30 33 32 39 32 26 23 22 23 29 28 38 37 33 27 26 30 33 29 26 24 26 26 26 25 24 22 22 20 19 20 21 20
20 16 15 15 16 18 18 21 23 27 29 31 33 39 34 24 31 27 25 27 29 36 38 32 27 31 35 34 30 25 24 26 26 26 25 24 23 21 20 20 19 19 19
21 18 15 14 16 18 19 22 27 27 33 36 35 36 36 31 34 29 28 31 32 36 37 34 29 30 34 32 27 23 26 27 26 27 25 23 22 21 20 19 19 19 19
23 20 17 15 17 16 18 21 24 27 32 34 35 36 31 33 34 36 35 33 34 39 39 36 32 31 30 27 25 26 26 26 27 27 26 22 20 20 19 19 18 18 18
27 23 20 19 17 17 19 20 22 24 25 27 30 31 34 35 35 37 36 36 37 39 39 39 36 32 27 27 27 27 26 25 27 27 26 23 21 20 19 18 18 17 17
29 25 23 20 18 19 19 20 20 23 23 24 25 33 34 36 39 35 36 37 38 37 39 36 32 30 25 23 29 27 26 24 26 26 26 25 23 21 20 19 18 17 16
29 26 23 22 21 20 20 19 20 21 21 21 25 32 40 38 37 38 38 39 40 38 37 35 30 30 25 23 28 29 26 25 26 27 24 24 23 23 22 20 18 17 17
31 26 23 23 22 20 19 18 19 21 21 19 25 27 36 39 35 35 36 38 39 38 38 38 33 30 24 22 26 29 26 27 25 26 24 24 23 23 22 21 19 19 18
28 25 23 21 23 21 20 19 19 19 20 20 25 26 26 32 37 37 34 35 37 38 35 38 36 29 25 25 23 25 26 24 24 26 25 24 24 23 22 21 21 20 20
27 25 24 20 24 25 23 21 17 19 20 21 23 28 28 30 32 33 32 34 35 36 36 37 38 30 24 26 23 15 18 21 23 25 25 25 25 24 23 22 22 22 21
24 27 26 20 24 27 24 22 17 20 21 24 27 29 26 27 30 32 34 33 36 34 31 36 35 27 23 28 14 15 3 4 17 23 25 27 26 26 26 26 26 25 24
24 25 29 28 23 23 26 23 19 18 17 20 23 27 27 29 32 30 33 35 33 34 35 34 34 33 22 29 22 10 3 3 4 13 26 29 30 30 30 29 29 28 28
26 27 29 24 23 24 27 25 22 18 12 17 20 27 30 34 35 30 26 33 35 34 34 38 35 34 30 24 22 20 17 13 3 2 13 32 33 33 34 33 32 32 32
26 27 28 24 26 27 27 27 25 17 16 16 19 25 29 30 34 34 31 31 36 37 38 42 36 34 34 30 26 20 18 14 11 3 3 7 29 38 37 37 36 35 35
23 24 24 25 28 29 27 26 25 20 17 17 20 23 25 29 33 35 29 30 35 42 41 41 38 35 36 35 38 32 26 14 11 6 3 4 11 22 37 38 38 39 39
Wind_Direction
196 180 186 177 170 171 167 154 147 142 147 156 161 159 157 153 152 152 151 148 145 138 133 134 144 147 133 128 126 125 125 121 117 115 113 109 104 102 105 105 102 102 100
176 175 178 181 177 175 171 163 154 148 150 158 163 162 157 156 155 155 153 151 147 138 136 135 136 135 136 134 134 132 126 121 121 117 110 105 106 107 108 109 109 106 101
180 176 181 184 182 180 176 171 164 157 154 157 162 161 159 158 158 157 157 155 147 141 139 137 136 136 137 139 138 135 131 129 128 124 117 113 111 110 112 111 110 106 104
176 177 180 185 188 185 182 180 172 167 162 161 165 166 163 161 162 162 159 155 151 146 144 140 140 142 141 140 139 138 135 132 127 125 121 120 118 119 125 121 117 114 105
180 177 181 188 193 191 188 186 181 176 171 168 167 168 169 167 165 163 159 155 152 147 145 144 145 144 145 142 139 137 137 134 130 126 125 128 127 124 128 126 125 126 125
184 184 187 193 197 197 193 191 189 185 177 173 172 170 169 166 163 161 158 156 152 150 150 144 148 146 146 143 139 137 137 135 131 127 123 124 126 120 120 113 114 119 121
182 192 197 199 201 202 197 195 193 192 186 179 176 174 169 164 160 161 157 154 152 150 150 152 147 146 147 146 145 143 142 141 136 133 129 130 128 124 124 122 120 118 114
189 192 203 205 207 206 204 204 201 199 192 185 179 169 171 163 163 160 158 155 151 148 152 149 146 148 151 149 148 147 151 149 139 134 133 137 134 131 128 124 123 124 118
183 191 204 207 210 212 213 210 212 213 218 180 175 169 184 157 158 160 160 158 153 155 153 151 151 150 148 148 151 149 150 148 142 139 134 140 138 135 132 130 128 125 120
177 186 198 206 207 215 215 216 217 189 132 122 165 177 161 159 159 167 166 165 160 159 158 154 155 152 152 151 155 156 155 153 151 146 138 144 143 137 135 133 130 127 123
176 181 189 196 209 213 217 216 215 205 199 189 190 195 164 172 181 176 177 170 166 163 158 155 158 159 162 159 159 153 158 155 152 145 141 149 144 140 139 136 134 128 124
185 185 191 199 206 209 206 193 197 188 179 176 169 174 171 168 184 186 189 173 170 165 156 156 155 158 157 157 156 159 159 157 156 150 149 150 146 143 142 141 137 134 131
188 192 194 200 204 200 193 183 179 177 185 184 175 173 191 168 185 187 192 173 175 168 156 156 154 160 161 161 162 159 156 162 157 151 155 152 149 147 149 147 142 137 136
184 190 193 197 194 197 200 184 183 187 188 182 177 182 178 177 176 183 192 179 177 173 160 160 161 165 164 167 163 160 162 164 160 158 159 158 151 155 153 150 149 145 145
186 186 188 186 192 198 202 197 194 195 196 200 199 196 184 184 174 179 191 183 183 178 168 162 157 156 162 168 169 169 168 166 166 165 163 162 159 159 157 156 153 151 152
187 185 182 187 193 200 202 206 207 201 199 199 197 197 191 184 179 177 182 186 187 182 175 167 162 163 164 177 176 176 173 171 172 172 167 166 168 167 164 162 158 159 162
188 181 185 186 194 199 201 207 211 204 202 198 194 195 185 184 185 176 178 187 187 185 178 171 165 162 157 171 180 180 179 174 178 178 174 172 174 176 177 172 168 169 173
183 182 183 186 191 201 199 201 205 209 212 213 210 205 205 183 184 180 183 186 187 183 176 175 171 164 163 172 180 185 184 180 181 184 180 181 181 185 184 183 181 179 183
185 180 186 189 187 195 199 197 207 209 206 201 200 150 168 177 177 179 183 186 185 182 179 181 180 173 166 172 179 187 186 186 187 188 188 191 193 195 194 193 193 193 197
186 184 187 180 191 196 192 191 198 204 204 200 183 174 164 177 186 184 184 187 185 184 183 182 182 179 169 172 178 186 189 191 191 195 196 197 202 204 205 203 202 206 212
186 184 188 175 186 192 184 178 183 190 206 200 193 186 179 187 192 188 187 187 186 186 186 184 181 178 169 172 164 166 185 196 199 203 202 204 208 212 214 214 215 216 219
177 186 187 180 182 190 185 181 184 197 207 210 202 198 196 197 196 192 193 190 192 189 188 184 183 184 181 176 164 144 139 206 218 216 216 215 217 218 221 224 226 228 230
179 183 189 193 183 183 187 182 180 184 199 206 211 205 199 195 192 185 195 193 194 191 191 191 189 190 184 188 181 159 137 179 165 226 231 227 226 226 229 231 233 235 238
181 185 190 190 191 190 192 191 191 194 192 203 198 204 201 201 201 196 196 197 200 198 198 198 198 199 195 191 194 199 191 162 156 208 228 233 233 236 236 237 239 242 243
174 177 184 189 197 198 199 199 202 202 210 204 201 203 204 194 198 200 212 212 207 209 208 201 205 204 199 197 194 186 179 176 190 153 224 226 233 237 240 240 244 246 247
169 173 179 185 195 202 204 207 210 207 208 196 201 194 197 196 198 204 212 216 213 215 216 209 210 210 204 207 203 201 199 176 200 188 205 211 220 235 239 243 245 248 250